GFSNGP_prec_cloud_159.txt.gz
Cloud_Cover
41 90 5 1 2 5 5 5 5 70 25 6 11 100 16 5 0 0 33 38 43 2 94 19 80 100 100 96 97 99 15 74 1 77 100 63 61 100 100 100 100 100 100 100
77 30 28 5 0 0 5 5 4 9 5 14 5 7 100 5 2 0 5 0 0 26 100 100 100 100 94 50 92 91 7 5 69 5 43 2 0 96 100 100 100 100 100 100
60 80 92 40 17 2 5 0 5 5 5 5 5 72 18 5 0 3 5 0 0 6 60 100 100 100 49 100 99 22 13 14 97 100 100 52 17 48 100 100 100 100 100 100
64 13 21 19 98 72 8 5 1 5 1 3 5 91 100 65 3 5 5 4 4 84 48 100 100 100 100 100 100 31 60 78 100 100 100 99 96 43 17 98 100 100 100 100
5 10 0 0 86 100 87 8 14 3 4 0 7 13 99 100 11 0 5 1 0 0 95 100 100 100 100 100 100 100 100 100 100 100 100 51 43 5 13 4 71 100 100 100
47 9 5 5 3 5 7 4 62 74 5 6 5 5 99 87 5 1 2 0 4 12 100 100 100 100 100 100 100 100 100 100 100 100 95 7 17 19 16 5 6 2 92 100
6 83 5 4 43 5 3 1 68 49 20 98 88 72 65 8 4 0 49 0 0 32 100 100 100 100 100 100 100 100 100 98 93 5 16 22 23 36 37 74 95 94 99 84
4 16 4 0 21 100 36 5 1 4 4 100 100 65 100 5 5 5 4 27 31 54 100 100 100 100 100 100 100 100 100 100 52 45 5 16 62 58 100 100 100 100 72 85
3 3 30 4 32 100 99 5 0 5 83 97 82 100 100 5 32 82 6 30 5 21 100 100 100 100 100 100 100 100 100 84 10 0 36 86 31 21 61 57 100 100 96 100
3 61 97 14 99 100 98 4 4 58 94 16 93 100 68 5 92 92 98 98 22 28 100 100 100 100 100 100 100 6 20 83 12 28 80 17 5 100 100 100 100 100 100 100
2 5 39 6 77 100 67 5 0 12 5 1 2 11 24 18 8 97 45 26 0 2 82 100 100 100 100 97 91 100 13 14 21 58 46 49 27 29 62 97 100 100 100 100
63 5 14 100 100 100 62 5 43 27 5 4 85 86 100 100 77 9 12 19 25 15 13 96 100 100 100 100 62 12 36 31 27 32 32 39 13 5 5 7 16 70 100 100
100 12 100 100 100 100 75 5 94 17 4 39 98 100 100 100 100 100 46 62 5 5 4 99 100 100 100 100 100 100 90 16 26 22 24 34 57 66 23 0 0 4 25 100
100 51 99 100 100 100 57 100 95 85 4 100 100 100 100 100 100 100 78 100 8 0 16 57 100 98 70 96 7 28 5 5 8 52 26 23 5 5 2 4 9 14 2 63
100 91 100 100 100 100 55 76 6 5 37 92 100 100 100 100 100 69 100 100 86 4 6 43 100 100 16 9 18 6 5 9 60 100 70 24 5 5 2 3 0 2 6 4
94 52 100 100 96 100 20 5 5 5 17 39 89 43 74 100 100 89 68 99 77 4 5 18 62 98 41 97 53 1 0 0 0 7 17 4 5 3 44 0 0 0 9 0
82 23 5 18 89 99 96 5 87 100 88 100 99 88 92 92 32 6 42 5 5 0 4 8 18 57 36 100 80 0 0 0 0 21 22 11 9 0 0 0 0 0 0 0
100 99 45 100 51 61 67 98 97 81 99 94 100 67 94 100 90 95 3 0 2 3 2 0 19 36 61 100 51 15 3 2 1 3 17 16 6 0 0 0 0 0 0 0
92 72 100 51 96 88 14 97 67 80 100 100 100 99 100 100 100 100 3 2 0 30 91 56 25 17 44 100 100 100 92 100 78 13 4 3 16 9 10 4 1 0 0 0
100 87 95 98 29 33 37 92 94 74 92 96 100 99 100 100 55 98 68 96 91 56 92 98 27 30 26 44 100 100 100 100 78 0 11 4 4 4 10 26 6 0 0 0
100 100 100 100 100 98 100 100 100 100 100 100 98 90 93 100 100 100 90 19 2 5 6 69 25 45 34 57 54 96 97 38 22 12 1 8 16 13 7 11 6 3 0 0
98 94 99 100 100 100 100 100 77 100 100 100 57 94 86 100 100 100 92 57 4 38 34 30 22 16 29 28 72 64 100 73 11 20 10 5 8 33 60 9 3 0 0 5
76 56 70 100 99 100 100 100 100 100 100 100 90 100 100 100 100 99 96 4 3 38 13 54 95 38 9 11 28 20 21 9 23 5 5 5 8 64 38 8 5 3 5 1
7 11 87 100 100 100 100 100 100 100 100 100 100 100 100 100 100 100 100 82 95 7 7 96 85 8 34 62 92 91 94 73 75 57 47 71 36 77 48 9 5 6 5 1
47 23 51 100 100 100 100 100 100 100 100 100 100 100 100 100 100 100 100 100 41 7 5 17 100 98 99 100 100 100 100 100 100 100 100 97 80 100 92 7 6 5 5 5
22 90 72 100 100 100 100 100 74 100 100 100 100 100 100 100 100 100 100 100 13 5 5 5 54 100 30 85 99 100 100 100 100 99 97 100 100 100 98 7 13 5 5 7
79 90 97 100 100 100 100 100 100 100 100 100 100 100 100 100 100 100 100 100 62 74 48 61 97 60 75 24 68 97 99 100 100 100 100 100 100 100 42 25 44 5 26 63

GFSNGP_prec_cloud_162.txt.gz
Cloud_Cover
5 94 12 5 5 5 8 5 0 5 5 5 5 32 32 8 91 97 6 0 4 57 5 56 26 14 5 85 41 8 70 99 49 5 98 3 8 15 95 100 100 100 99 100
54 14 100 55 2 29 35 5 0 5 10 5 3 5 90 50 99 66 5 0 0 4 4 5 36 12 36 91 66 22 5 10 79 55 66 97 38 23 36 100 100 100 93 100
21 27 40 100 100 14 5 3 5 1 5 5 5 5 5 57 96 67 5 1 0 0 0 0 1 5 100 66 89 49 5 91 96 100 100 100 94 100 100 53 100 100 100 100
5 5 5 82 100 100 73 5 5 5 52 7 2 5 5 5 43 75 5 5 0 0 0 0 0 5 88 96 60 48 92 100 98 100 100 100 72 100 100 100 67 56 100 100
68 11 4 5 21 68 100 100 46 5 35 34 5 2 0 5 29 5 5 2 0 0 0 0 11 26 81 95 100 97 100 97 100 100 100 100 100 100 100 86 48 31 17 100
46 5 5 4 21 10 7 96 88 4 87 5 5 5 5 24 100 14 5 0 0 0 0 24 23 87 100 100 100 100 100 97 100 100 100 100 100 100 100 16 5 5 5 5
78 47 9 23 20 28 35 5 11 1 1 36 16 5 5 12 100 100 7 3 0 0 3 100 95 91 72 92 100 100 94 28 100 100 100 88 95 92 16 5 4 3 4 5
4 5 56 99 67 16 64 27 5 4 0 0 5 5 53 16 100 100 15 5 1 18 95 100 76 41 100 100 100 100 100 100 100 100 52 27 7 25 49 5 4 5 4 1
0 1 12 69 8 4 5 51 5 68 1 0 0 3 65 56 56 100 13 5 10 84 100 100 55 77 100 100 100 100 100 100 100 53 61 100 61 76 100 100 64 96 97 98
3 4 0 71 99 41 23 5 5 52 5 5 4 0 66 63 56 98 98 60 74 100 100 100 66 100 100 100 100 100 100 100 96 100 100 100 91 79 92 50 94 100 100 100
5 28 5 5 6 79 16 3 5 5 4 0 4 4 83 24 27 6 97 89 55 87 99 100 79 100 100 100 100 100 99 52 91 100 100 100 100 36 38 57 59 95 100 100
39 93 4 4 0 5 5 10 11 5 0 1 1 9 47 98 56 52 88 80 44 46 98 100 100 100 100 100 54 96 100 99 96 23 20 9 5 5 13 4 5 10 31 96
100 40 3 5 0 2 3 62 5 4 8 78 67 83 100 47 48 83 91 77 25 42 100 100 94 71 100 100 100 100 54 82 24 50 32 6 5 5 13 4 0 0 0 12
95 96 100 100 73 11 5 33 5 33 99 12 60 93 75 99 99 100 87 93 21 61 100 100 97 38 17 100 100 100 100 84 41 5 6 5 5 7 2 4 3 5 4 10
82 92 95 62 98 37 5 5 5 70 100 5 44 35 100 100 100 100 100 41 20 62 100 100 100 90 29 51 100 100 100 100 100 37 64 7 2 2 0 4 0 1 0 0
100 100 100 100 77 79 26 73 71 100 92 60 99 100 100 100 86 91 98 91 20 43 100 100 100 73 7 0 0 39 32 90 80 62 38 5 4 2 0 0 0 0 0 0
98 100 100 86 45 65 9 85 100 78 90 53 97 100 100 100 100 100 91 93 80 20 22 93 100 100 4 26 100 48 0 2 32 5 5 14 5 1 0 0 0 0 0 0
81 100 100 72 90 57 36 57 100 99 64 8 61 100 85 39 90 90 94 100 81 6 5 24 86 100 53 76 100 100 4 0 4 57 7 2 0 0 0 0 0 0 0 0
100 100 88 88 94 73 100 66 72 40 8 5 35 63 25 92 58 84 59 100 77 12 6 83 83 100 97 97 100 100 92 13 0 45 26 4 1 0 0 0 0 0 0 0
92 85 86 46 86 95 100 100 100 63 82 23 5 92 89 99 98 100 100 86 3 5 74 98 100 100 93 48 68 100 100 100 96 100 100 25 0 0 0 47 8 1 0 4
100 100 100 100 100 100 100 100 100 100 100 100 100 100 100 100 100 100 100 92 75 59 80 100 100 100 100 100 91 94 100 100 100 67 62 3 3 0 0 2 5 5 18 6
100 100 100 100 100 100 90 98 100 100 100 100 100 100 100 100 96 100 100 100 100 100 100 93 83 83 94 92 82 90 100 88 93 50 5 5 1 2 4 6 56 87 88 5
100 100 100 100 100 97 100 100 100 100 100 100 100 83 100 88 50 46 61 100 100 100 100 16 37 42 49 100 98 87 96 100 74 6 5 5 9 63 89 97 97 75 52 9
100 100 100 100 95 54 94 98 100 100 100 100 100 100 95 96 64 89 13 100 100 85 90 58 41 54 57 100 100 100 50 41 49 66 79 94 100 100 100 89 50 58 70 78
100 100 100 100 60 47 62 88 100 100 86 45 72 76 62 88 100 62 39 98 100 100 100 99 64 49 37 43 46 34 24 66 18 11 39 24 63 89 83 90 100 100 100 83
100 100 100 74 95 96 100 100 100 100 100 100 99 100 100 72 100 100 100 100 100 100 100 13 85 70 10 5 6 47 84 94 100 100 100 100 100 100 100 100 100 100 100 32
100 100 83 100 100 100 100 100 100 100 100 100 100 100 100 100 100 100 100 100 100 77 42 74 97 7 5 5 7 82 39 37 79 61 100 100 100 100 100 100 100 75 35 6

GFSNGP_prec_cloud_165.txt.gz
Cloud_Cover
5 5 5 6 45 33 7 52 8 9 92 0 4 5 76 100 9 5 5 5 0 2 5 3 1 4 4 1 5 5 60 9 1 30 0 1 50 41 65 33 15 31 52 43
22 5 85 5 5 74 90 88 83 49 98 9 5 5 13 5 5 5 5 5 5 2 4 0 0 4 5 5 5 5 22 5 14 37 0 17 100 100 100 9 31 46 35 26
10 19 5 75 96 5 5 34 79 34 99 5 45 15 5 5 72 10 5 5 0 0 0 0 0 0 3 6 41 65 99 19 56 96 41 35 100 100 90 100 85 83 87 96
5 17 6 31 100 98 31 3 7 18 88 8 17 61 5 5 21 99 25 5 0 0 1 0 0 0 0 48 19 31 100 100 95 98 94 100 100 100 90 100 100 38 4 28
5 5 5 46 56 100 100 50 3 5 7 54 62 14 45 5 5 5 94 72 11 2 0 0 0 0 0 0 33 52 100 100 76 88 76 100 100 78 100 100 81 99 62 5
89 5 5 10 62 5 14 54 5 5 5 25 6 97 100 5 4 3 72 100 78 0 5 0 90 70 100 100 100 100 100 100 100 74 42 100 100 100 100 92 95 100 99 5
8 5 5 5 75 16 5 15 64 6 5 5 5 16 80 70 4 1 5 100 100 5 5 9 100 100 100 100 100 100 100 100 100 83 100 100 100 91 54 62 11 53 54 5
5 5 5 93 100 88 5 4 5 5 5 5 5 6 29 82 19 0 0 76 100 47 100 100 100 36 44 40 72 99 100 100 100 100 100 100 100 43 5 4 13 5 3 3
3 26 1 45 100 100 97 36 5 10 52 5 5 4 74 97 42 2 0 5 5 96 99 100 96 4 0 25 74 100 100 100 100 100 100 100 93 36 5 5 5 5 19 90
1 4 4 10 59 12 5 77 10 5 99 58 10 13 6 36 75 5 0 3 38 100 100 100 73 40 35 52 99 100 100 100 100 100 100 98 68 6 90 13 5 5 57 20
4 5 5 5 4 4 31 7 5 41 81 100 100 100 95 5 5 5 3 5 3 74 100 100 73 61 30 44 100 100 100 100 100 100 100 100 60 34 80 7 31 97 18 56
5 2 5 0 5 4 0 4 3 49 100 27 35 61 18 94 5 24 100 61 17 98 100 100 86 46 5 4 100 100 100 100 100 100 100 100 16 3 52 78 64 78 99 52
43 68 1 52 9 5 5 3 2 2 2 11 5 2 52 48 16 14 100 100 38 100 100 100 91 99 62 3 89 100 100 100 100 100 100 47 1 0 14 99 100 75 11 5
2 0 3 20 90 23 0 5 0 5 5 4 5 5 8 35 40 45 100 82 61 100 100 66 45 33 14 2 14 20 88 100 100 97 18 5 0 4 1 5 7 8 10 36
86 84 98 76 65 6 5 5 0 2 52 95 35 5 4 5 23 46 88 98 89 100 100 97 65 21 0 96 100 50 14 100 97 76 75 45 2 2 4 13 10 4 5 11
95 57 64 28 5 5 5 5 0 5 84 99 72 5 35 6 100 95 100 60 99 100 100 100 80 31 0 100 100 7 3 97 93 100 100 100 98 6 39 6 28 5 9 30
99 30 5 5 5 6 26 5 5 33 72 100 92 4 5 97 100 100 100 100 100 100 100 100 76 57 26 27 8 1 0 22 96 100 90 57 60 73 27 48 9 10 37 25
22 11 94 82 100 100 100 100 99 100 100 90 32 6 58 100 100 100 100 100 100 100 100 100 100 76 12 5 5 38 18 0 0 25 25 77 76 100 100 46 4 4 5 5
100 65 100 58 100 100 100 100 100 100 85 6 22 17 66 100 100 100 100 86 100 100 100 60 100 100 47 15 13 57 99 3 0 0 0 0 0 0 0 0 0 0 2 5
70 48 100 100 100 100 100 100 100 46 9 5 100 76 75 100 99 100 94 97 100 100 32 25 100 100 100 52 6 82 98 45 5 6 5 12 18 5 1 29 5 0 1 0
95 98 99 100 100 100 100 98 92 80 50 5 10 37 72 98 100 100 100 100 100 88 37 13 34 100 100 99 42 22 3 100 89 100 12 97 53 5 5 6 5 4 0 0
100 100 91 88 96 100 94 29 30 24 6 5 5 51 59 66 95 100 99 100 99 31 8 18 100 100 100 100 91 100 93 91 76 12 99 100 62 7 38 5 5 4 0 0
100 100 100 100 96 100 100 100 100 100 28 21 7 35 70 90 99 100 100 100 100 100 100 100 100 100 100 100 100 100 100 99 97 78 52 99 14 32 25 6 11 5 5 5
100 100 100 100 100 100 100 100 100 100 100 100 99 100 100 100 100 100 100 100 100 100 100 100 40 93 99 100 100 100 100 100 70 98 70 11 86 78 60 95 99 69 47 65
100 100 100 100 100 100 100 100 100 100 100 100 100 100 100 100 100 100 100 93 100 86 99 100 100 100 86 100 100 100 100 98 67 46 80 90 90 100 97 76 70 100 100 100
98 100 100 100 100 100 100 100 100 100 100 100 100 100 100 100 100 100 100 100 100 99 100 98 95 100 100 100 100 61 55 10 7 14 32 81 100 100 100 100 100 100 100 100
98 100 100 100 76 96 100 100 100 100 100 100 100 100 100 90 80 100 100 100 100 95 100 96 100 100 100 95 82 8 90 98 100 94 93 87 77 91 99 100 100 100 100 100

GFSNGP_prec_cloud_168.txt.gz
Cloud_Cover
32 44 5 5 10 61 7 5 5 38 5 5 0 5 4 5 5 0 5 4 5 16 5 3 5 3 0 0 0 4 4 5 4 28 5 2 2 4 0 5 5 53 5 13
45 62 100 35 5 5 82 23 5 17 22 6 5 3 24 5 5 4 5 12 5 4 5 1 0 0 2 4 2 5 5 5 13 5 47 5 100 8 5 2 6 24 44 80
80 88 67 100 100 8 5 63 38 15 100 5 5 5 5 42 5 5 5 5 5 2 4 5 0 0 0 0 4 0 5 5 26 7 5 2 31 67 5 80 100 62 99 100
61 82 40 100 100 100 30 5 67 46 100 16 5 42 5 17 5 5 5 6 14 3 3 0 0 0 0 0 0 0 0 5 7 13 28 0 0 31 54 95 100 100 100 91
100 100 97 82 100 100 100 83 4 54 40 6 42 100 8 59 39 5 5 14 100 5 5 5 4 4 0 0 0 0 0 3 11 41 92 98 67 71 87 60 58 100 49 29
100 94 71 100 97 99 100 100 70 17 8 70 47 19 37 5 6 5 5 5 5 41 7 3 5 5 6 0 4 49 70 91 51 90 100 100 100 36 11 15 100 17 44 10
100 100 100 100 86 95 100 100 100 100 84 5 10 6 6 95 36 5 5 5 5 5 5 9 20 12 76 69 91 100 100 100 97 100 100 100 100 57 98 32 27 5 3 5
100 100 100 100 100 48 34 15 25 79 100 91 4 4 5 11 100 96 5 5 5 1 0 5 5 9 60 84 78 70 87 100 98 97 100 100 100 85 100 98 99 23 5 5
100 100 100 97 94 61 38 5 5 5 5 6 99 49 6 5 25 100 100 18 4 0 96 40 21 24 35 68 69 39 44 58 94 100 100 100 100 100 100 100 100 61 2 31
5 36 5 85 5 5 1 0 3 5 5 50 94 100 100 44 5 35 100 64 6 53 97 98 27 9 0 28 0 0 0 53 95 100 100 100 100 100 100 100 100 96 96 10
42 54 69 79 21 10 19 5 0 0 21 76 100 100 100 97 5 5 48 99 12 17 71 100 28 3 0 1 3 1 8 58 99 100 100 100 100 100 100 100 98 98 77 23
75 100 100 58 28 6 0 0 2 2 2 91 100 100 100 68 5 4 19 100 48 86 83 100 45 0 0 4 0 0 2 89 100 100 100 100 100 100 100 100 99 83 100 46
6 5 5 5 5 0 0 0 0 0 0 44 100 100 100 66 7 7 18 100 67 76 100 100 60 25 17 0 0 0 5 100 100 100 100 100 100 100 100 100 100 18 5 57
71 34 2 4 4 0 0 1 0 1 0 2 26 61 54 10 100 91 96 100 89 85 100 100 54 19 5 0 0 0 23 93 100 100 100 100 100 100 100 100 100 52 48 90
17 33 89 36 7 0 2 5 5 5 5 0 2 42 31 61 86 98 100 100 77 100 100 98 86 25 8 5 0 0 10 97 64 100 100 100 100 100 100 100 95 76 42 18
9 9 39 8 5 27 100 96 5 5 2 0 0 4 8 94 47 96 75 100 100 100 100 100 100 92 18 5 5 27 5 36 55 15 100 100 100 100 100 100 77 39 62 55
75 100 100 89 70 98 100 90 24 20 18 12 0 5 5 39 32 4 19 99 67 98 100 100 50 85 100 19 6 84 5 3 1 0 0 20 98 100 100 100 95 93 32 18
72 44 74 100 100 100 94 62 56 5 4 1 2 5 5 4 5 19 43 82 100 100 100 100 100 97 100 79 94 28 2 37 20 0 0 0 0 46 97 89 36 46 39 13
99 78 100 100 100 96 98 63 77 14 28 10 8 22 48 21 90 86 87 87 100 100 100 100 100 99 48 30 24 11 3 5 5 5 5 1 0 5 16 5 5 21 5 47
91 100 100 99 99 100 90 67 74 61 5 10 95 100 84 84 94 100 100 100 100 100 100 100 97 74 85 55 16 40 64 55 5 5 15 8 14 18 0 0 2 16 44 89
100 100 100 94 100 100 64 99 75 18 98 97 99 85 100 100 100 100 100 100 100 100 100 96 98 100 100 98 43 31 48 100 100 77 76 37 65 62 25 0 0 0 0 4
100 100 97 100 100 100 100 80 100 98 98 68 99 100 100 100 100 100 100 100 100 100 100 86 100 86 36 28 14 89 100 100 100 88 41 76 44 45 50 0 0 0 2 4
100 100 100 100 100 100 98 87 68 68 78 48 90 100 100 100 100 100 100 100 100 100 100 87 100 67 18 48 92 100 100 100 85 92 80 71 68 77 93 8 3 5 6 34
100 100 100 100 100 100 74 69 100 92 88 31 38 79 100 100 100 100 100 100 100 99 100 7 28 12 53 92 100 100 100 100 100 76 70 92 39 100 63 12 7 5 36 12
100 100 100 100 100 100 100 100 100 86 85 74 85 70 84 100 100 100 100 100 100 100 49 83 99 94 98 100 100 100 84 100 100 100 78 43 78 99 93 92 95 27 73 98
100 100 100 100 100 100 100 100 100 100 94 100 82 88 100 100 96 100 73 93 94 100 95 100 100 51 75 100 100 100 100 100 89 100 99 87 50 70 91 80 99 100 100 100
100 100 100 100 100 100 100 100 100 100 100 100 100 100 100 100 100 98 100 100 100 100 100 100 94 97 90 99 87 95 83 88 66 95 100 94 51 55 78 100 100 100 100 100

GFSNGP_prec_cloud_171.txt.gz
Cloud_Cover
5 19 38 87 78 64 51 5 5 92 75 96 100 100 62 100 7 0 0 0 0 0 2 5 4 4 0 0 0 0 1 0 3 5 5 5 6 47 4 0 0 0 1 7
9 6 25 5 34 7 26 37 61 7 21 14 14 99 94 93 31 56 0 4 3 0 0 0 3 0 0 0 0 0 0 0 0 1 5 5 5 5 0 4 5 0 5 7
100 100 77 42 100 37 5 5 46 66 77 100 13 5 41 6 42 2 0 0 0 1 1 1 4 5 0 0 0 0 0 0 0 0 3 4 5 0 28 42 3 5 43 87
57 97 96 100 97 92 95 76 64 16 99 100 69 100 63 2 5 3 4 0 4 0 1 3 5 5 5 0 1 0 0 0 0 0 3 7 15 32 56 31 73 19 72 100
89 100 48 100 100 92 97 100 100 65 17 100 96 74 48 1 5 5 3 0 5 3 2 2 0 0 5 5 5 3 4 3 36 2 42 47 7 31 38 73 38 68 92 100
99 100 48 100 100 100 90 100 100 100 94 41 5 100 45 2 0 1 9 10 1 5 57 96 95 1 5 5 10 16 9 99 86 42 81 65 31 10 68 93 97 46 5 53
100 99 8 92 100 100 43 99 100 100 100 100 17 6 5 5 4 0 6 44 12 5 5 5 5 5 2 5 24 55 56 56 39 92 99 99 86 100 97 100 100 90 5 100
100 100 95 100 100 92 93 88 26 100 100 100 96 39 5 5 5 3 0 0 5 5 14 28 5 5 30 81 99 82 61 56 100 100 96 44 85 100 100 100 100 67 73 76
100 100 100 71 100 100 100 97 100 100 100 100 100 100 100 20 5 5 5 0 0 5 7 5 5 5 3 93 100 76 84 94 100 100 99 51 100 100 100 100 100 100 100 100
5 51 86 43 60 100 100 72 97 100 100 100 100 100 100 100 90 7 5 4 1 22 31 5 10 9 37 94 100 92 92 89 94 95 95 88 100 100 100 100 100 100 100 100
4 58 4 73 100 100 91 63 100 100 100 100 100 100 43 100 44 5 6 5 10 71 36 56 10 19 28 74 99 72 56 21 11 0 67 100 100 100 100 100 100 100 100 100
76 69 100 36 24 7 5 9 30 17 19 4 5 12 6 100 78 14 49 5 18 31 88 63 42 14 17 20 36 31 1 0 0 0 4 97 100 100 100 100 100 100 100 100
61 62 5 59 99 27 14 100 42 3 0 0 0 0 5 6 96 75 80 6 13 70 93 84 48 13 13 25 57 6 1 0 0 0 84 100 100 100 100 100 100 100 100 100
92 87 41 81 70 39 7 5 5 5 3 1 2 0 0 26 7 100 98 56 80 41 43 100 82 17 26 38 38 3 0 0 0 0 14 100 100 100 100 100 100 100 100 100
75 65 93 94 66 46 76 61 5 5 5 3 1 5 4 0 14 10 55 27 18 26 94 41 84 88 28 49 41 4 5 5 0 0 6 97 100 100 100 100 100 100 77 33
100 100 87 100 92 100 52 78 45 5 5 5 6 40 15 0 5 6 24 49 51 96 100 59 93 100 95 34 95 11 59 35 5 1 0 5 95 100 100 100 86 75 62 62
100 7 17 84 59 98 100 100 75 68 94 95 100 100 84 0 33 99 84 100 98 100 96 87 100 99 100 68 5 10 61 52 5 0 0 1 5 94 99 100 100 99 100 76
67 87 65 99 100 80 100 97 100 89 90 98 100 100 77 12 96 46 65 37 98 80 100 100 100 100 100 64 16 40 67 10 4 0 0 0 0 1 5 5 21 46 36 94
95 83 54 58 70 90 78 100 28 79 96 89 88 35 28 1 33 8 41 88 89 96 100 100 100 100 100 100 41 82 60 8 3 0 0 0 0 0 0 0 1 14 8 6
93 98 80 48 51 92 99 71 66 65 48 70 98 100 18 0 19 75 100 91 100 100 100 100 100 100 100 100 100 100 85 28 5 0 17 7 4 4 1 0 0 0 0 0
100 100 100 100 65 54 100 100 100 81 27 91 86 58 79 1 5 87 18 62 73 27 54 100 100 100 100 100 100 100 7 26 8 42 65 11 73 36 100 92 5 0 0 0
100 100 87 97 100 81 50 42 75 92 61 18 99 70 22 5 41 92 17 69 100 97 100 88 99 100 100 100 41 31 17 8 5 60 100 98 100 100 93 96 68 5 5 1
99 98 100 100 100 100 89 100 100 100 100 34 83 100 83 37 55 71 99 100 100 100 100 100 100 100 100 100 40 44 71 46 5 14 51 92 100 35 76 25 90 4 5 5
100 99 92 95 100 80 100 86 94 66 100 100 100 100 100 100 100 100 100 100 100 100 100 100 100 100 100 100 61 100 100 99 73 34 57 78 61 100 100 99 61 97 3 5
95 100 100 100 100 100 100 100 86 100 100 100 100 100 100 100 100 100 100 100 100 100 100 100 100 99 100 52 100 89 89 42 88 100 100 78 39 9 90 62 99 47 9 63
100 100 100 100 100 100 99 100 100 100 100 100 100 100 100 100 100 100 100 100 100 100 100 100 67 6 12 98 76 100 100 100 94 99 84 74 95 95 95 100 98 39 63 46
100 100 100 100 100 100 100 100 100 100 100 100 100 100 100 100 100 100 100 100 100 100 98 96 80 80 25 94 70 100 98 100 100 85 89 93 58 96 99 100 100 87 86 98

GFSNGP_prec_cloud_174.txt.gz
Cloud_Cover
75 97 88 89 100 100 92 92 10 27 97 45 92 14 90 73 83 45 4 0 0 0 0 0 0 0 0 0 0 0 1 5 7 33 21 66 8 4 3 5 0 0 5 2
61 77 100 95 58 100 100 100 43 7 6 46 12 99 80 49 88 70 72 17 0 0 0 0 4 2 0 0 0 0 0 0 4 5 5 5 5 6 5 4 0 0 0 0
100 99 88 56 100 100 91 100 98 82 100 100 70 7 100 11 6 40 5 0 0 0 0 0 0 0 3 0 0 0 0 0 0 4 0 0 5 4 5 4 2 0 0 0
100 100 41 100 100 100 100 100 100 100 95 27 100 100 73 65 5 69 1 0 0 0 0 0 0 4 3 0 3 3 5 0 0 0 0 0 0 0 3 4 5 3 0 0
100 100 100 100 100 100 100 100 100 93 38 28 94 82 100 8 4 82 0 0 0 0 5 4 0 1 5 5 5 5 5 0 0 0 0 0 0 0 0 0 5 4 39 3
100 91 98 100 100 100 100 15 100 96 34 5 99 75 98 44 54 4 3 1 0 0 2 5 5 5 3 3 0 2 0 0 0 0 0 0 0 0 0 4 5 92 96 97
100 100 100 100 100 100 100 56 79 61 26 81 100 82 100 92 100 28 0 2 0 2 0 5 5 5 10 29 10 0 0 0 13 10 2 20 30 62 91 98 97 100 99 98
92 100 94 72 100 100 100 100 52 16 49 77 85 100 100 5 100 100 87 3 0 91 25 10 29 67 5 24 32 24 49 73 59 46 62 99 100 100 99 95 100 100 100 100
93 43 90 97 9 38 54 97 83 99 26 5 43 100 100 67 65 100 100 14 0 76 63 28 56 77 18 92 95 100 100 95 40 85 94 98 100 100 27 22 100 100 100 100
62 51 44 7 99 25 55 55 45 65 18 87 39 100 100 100 78 100 100 100 10 70 8 5 5 20 7 25 88 98 100 78 51 96 75 100 99 100 90 61 100 100 100 100
10 5 5 3 32 40 5 15 5 23 57 98 95 100 100 100 100 94 33 100 100 98 50 4 56 36 25 59 100 100 100 94 100 100 94 100 100 100 100 100 100 100 100 100
21 90 62 36 18 41 76 25 79 84 100 100 1 66 100 100 100 100 98 34 100 98 96 5 100 100 56 100 43 42 60 81 17 5 5 0 18 13 11 96 100 100 100 100
89 6 5 5 7 19 35 90 78 100 89 100 21 53 100 100 100 100 100 100 100 100 74 7 100 100 100 57 37 5 0 0 0 11 5 2 0 0 5 93 100 100 100 100
4 13 33 6 7 60 8 5 44 43 4 5 1 4 7 16 75 100 100 100 51 12 84 54 77 99 68 40 5 5 2 0 0 0 5 5 0 0 0 56 100 100 100 100
26 7 70 60 70 4 54 16 6 2 35 14 5 3 30 4 5 33 10 30 88 26 5 12 36 100 72 66 100 10 0 0 0 0 0 0 0 0 0 71 100 100 100 100
91 19 20 10 0 18 90 13 7 96 39 38 5 5 5 3 45 68 0 0 22 88 95 47 5 84 98 85 98 24 5 3 0 0 0 0 0 0 0 1 100 86 100 100
58 28 9 12 46 5 0 1 18 99 5 87 59 2 9 67 16 100 0 0 1 27 96 93 100 98 71 100 100 100 100 6 3 4 0 0 0 0 0 0 0 20 100 100
72 33 34 8 12 12 11 5 0 35 70 3 85 46 33 13 1 98 36 0 0 6 94 99 100 100 83 100 100 100 100 100 100 14 5 5 5 1 0 0 0 0 2 84
100 91 74 62 21 77 67 28 17 8 0 3 0 23 91 100 100 100 9 0 0 23 35 29 99 100 100 100 100 100 100 100 100 31 8 5 5 5 2 0 0 0 0 2
97 94 99 94 100 84 76 99 66 51 4 1 8 3 1 1 57 16 0 0 0 0 3 42 91 100 100 100 100 100 100 96 13 42 62 5 5 5 4 7 1 0 0 0
71 99 100 99 100 100 100 100 100 100 78 40 8 2 0 65 70 1 30 56 5 75 75 98 70 100 100 100 100 100 100 100 87 31 73 11 54 27 4 47 12 0 0 0
69 100 100 100 100 100 96 66 38 43 88 83 57 54 18 0 2 5 98 94 67 100 97 100 100 100 100 98 100 100 100 100 100 96 21 100 63 98 100 55 43 100 9 0
100 100 100 100 100 99 93 88 100 100 74 50 7 5 5 0 27 70 100 100 100 100 100 100 100 100 100 100 100 100 100 98 100 89 100 100 100 100 100 97 100 100 96 5
100 100 100 100 100 100 100 100 100 100 100 100 100 67 12 5 8 84 100 100 100 100 100 99 100 100 100 100 100 100 66 86 100 16 6 53 83 100 73 86 47 92 93 87
100 100 100 100 100 100 100 100 100 100 100 100 100 100 100 100 100 91 69 57 95 94 82 100 100 100 100 98 97 49 67 82 100 30 66 100 100 100 98 100 70 98 100 100
100 100 100 100 100 93 100 100 100 100 100 100 100 100 100 100 100 100 100 100 98 63 96 100 100 99 100 99 94 72 96 97 100 92 21 5 95 100 100 100 100 100 100 100
100 100 100 100 100 100 100 100 100 100 100 100 100 100 100 100 100 100 100 100 100 100 78 66 94 21 90 100 100 100 87 56 65 65 86 86 100 100 99 100 100 100 93 100